Location: Newark
(54.4333°N, 18.5500°E)
Time: 20:04:05
(UTC+00:00)

Envisat - Pass Details

Date: 17 December 2019
Orbit: 764 x 766 km, 98.1° (Epoch: 29 January)

Event Time Altitude Azimuth Distance (km) Brightness Sun altitude
Rises 05:16:26 0° 18° (NNE) 3,249 6.2 -14.0°
Reaches altitude 10° 05:18:50 10° 24° (NNE) 2,317 5.5 -13.7°
Maximum altitude 05:23:47 48° 99° (E) 997 4.1 -13.0°
Drops below altitude 10° 05:28:41 10° 173° (S) 2,300 5.9 -12.3°
Sets 05:31:03 0° 179° (S) 3,221 6.6 -12.0°
